Tracking 29892 objects as of 21-Nov-2024
HD Live streaming from Space Station
objects crossing your sky now

STARLINK-30426

Track STARLINK-30426 now!
10-day predictions
STARLINK-30426 is classified as:


NORAD ID: 57848
Int'l Code: 2023-141J
Perigee: 481.5 km
Apogee: 483.2 km
Inclination: 53.2 °
Period: 94.1 minutes
Semi major axis: 6853 km
RCS: Unknown
Launch date: September 12, 2023
Source: United States (US)
Launch site: AIR FORCE WESTERN TEST RANGE (AFWTR)
Your satellite tracking list
Your tracking list is empty




NASA's NSSDC Master Catalog

Two Line Element Set (TLE):
1 57848U 23141J   24325.04421669 -.00001168  00000-0 -27313-4 0  9999
2 57848  53.1606 328.8482 0001237  98.6932 261.4209 15.30212544 67655
Source of the keplerian elements: AFSPC